QPF
0.00 0.00 0.00 0.00 0.00 0.00 0.00 0.00 0.00 0.00 0.00 0.00 0.00 0.00 0.00 0.01 0.01 0.00 0.05 0.01 0.00 0.00 0.00 0.00 0.00 0.00 0.00 0.00 0.00 0.00 0.00 0.00 0.00 0.00 0.00 0.00 0.00 0.00 0.01 0.02 0.03 0.06 0.07
0.00 0.00 0.00 0.00 0.00 0.00 0.00 0.00 0.00 0.00 0.00 0.00 0.00 0.00 0.00 0.00 0.07 0.04 0.03 0.04 0.01 0.00 0.00 0.00 0.00 0.00 0.00 0.00 0.00 0.00 0.00 0.00 0.00 0.00 0.00 0.01 0.02 0.01 0.01 0.01 0.01 0.03 0.03
0.00 0.00 0.00 0.00 0.00 0.00 0.00 0.00 0.00 0.00 0.00 0.00 0.00 0.00 0.02 0.04 0.06 0.01 0.00 0.08 0.15 0.11 0.06 0.02 0.00 0.00 0.00 0.00 0.00 0.00 0.00 0.00 0.00 0.00 0.01 0.00 0.00 0.01 0.01 0.02 0.02 0.02 0.02
0.00 0.00 0.00 0.00 0.00 0.00 0.00 0.00 0.00 0.00 0.00 0.00 0.00 0.00 0.00 0.00 0.00 0.00 0.02 0.07 0.18 0.24 0.24 0.16 0.08 0.02 0.00 0.00 0.00 0.00 0.00 0.01 0.01 0.02 0.01 0.00 0.00 0.00 0.00 0.01 0.01 0.01 0.01
0.00 0.00 0.00 0.00 0.00 0.00 0.00 0.00 0.00 0.00 0.00 0.00 0.00 0.00 0.00 0.00 0.00 0.00 0.01 0.02 0.06 0.05 0.08 0.13 0.13 0.06 0.01 0.00 0.00 0.00 0.00 0.01 0.02 0.03 0.02 0.01 0.00 0.00 0.00 0.00 0.00 0.00 0.00
0.00 0.00 0.00 0.00 0.00 0.00 0.00 0.00 0.00 0.00 0.00 0.00 0.00 0.00 0.00 0.00 0.00 0.00 0.00 0.00 0.01 0.02 0.01 0.01 0.03 0.04 0.01 0.00 0.00 0.00 0.01 0.01 0.02 0.03 0.05 0.03 0.01 0.00 0.00 0.00 0.00 0.00 0.00
0.00 0.00 0.00 0.00 0.00 0.00 0.00 0.00 0.00 0.00 0.00 0.01 0.01 0.01 0.00 0.00 0.00 0.01 0.02 0.03 0.00 0.02 0.01 0.01 0.02 0.01 0.00 0.00 0.01 0.01 0.01 0.01 0.01 0.02 0.03 0.05 0.04 0.01 0.00 0.00 0.00 0.00 0.00
0.00 0.00 0.00 0.00 0.00 0.00 0.00 0.00 0.00 0.00 0.01 0.03 0.04 0.03 0.03 0.01 0.01 0.03 0.09 0.05 0.01 0.02 0.05 0.01 0.02 0.01 0.00 0.00 0.01 0.01 0.01 0.00 0.00 0.01 0.01 0.02 0.03 0.02 0.01 0.01 0.00 0.00 0.00
0.00 0.00 0.00 0.00 0.00 0.00 0.00 0.01 0.00 0.00 0.03 0.07 0.07 0.07 0.06 0.07 0.07 0.08 0.15 0.20 0.13 0.11 0.11 0.03 0.02 0.02 0.01 0.00 0.00 0.01 0.01 0.01 0.00 0.00 0.01 0.01 0.01 0.01 0.01 0.01 0.00 0.00 0.00
0.00 0.00 0.00 0.00 0.00 0.00 0.00 0.00 0.01 0.02 0.03 0.09 0.11 0.11 0.07 0.04 0.03 0.08 0.15 0.15 0.16 0.10 0.09 0.03 0.01 0.00 0.00 0.01 0.00 0.00 0.00 0.00 0.00 0.01 0.01 0.01 0.01 0.00 0.00 0.00 0.00 0.00 0.00
0.00 0.00 0.00 0.00 0.00 0.00 0.00 0.00 0.02 0.08 0.09 0.11 0.15 0.13 0.13 0.04 0.02 0.02 0.02 0.05 0.06 0.04 0.01 0.01 0.01 0.00 0.00 0.01 0.01 0.00 0.00 0.01 0.01 0.01 0.01 0.01 0.02 0.01 0.00 0.00 0.00 0.00 0.00
0.00 0.00 0.00 0.00 0.00 0.00 0.00 0.01 0.02 0.10 0.16 0.06 0.08 0.03 0.10 0.13 0.03 0.01 0.03 0.03 0.03 0.01 0.01 0.00 0.00 0.00 0.00 0.00 0.00 0.00 0.00 0.00 0.00 0.00 0.01 0.01 0.01 0.00 0.00 0.00 0.00 0.00 0.00
0.00 0.00 0.00 0.00 0.00 0.00 0.00 0.01 0.02 0.05 0.09 0.05 0.08 0.04 0.04 0.07 0.09 0.04 0.04 0.02 0.01 0.00 0.00 0.00 0.00 0.00 0.00 0.00 0.00 0.00 0.00 0.00 0.00 0.00 0.00 0.00 0.00 0.00 0.00 0.00 0.00 0.00 0.00
0.00 0.00 0.00 0.00 0.00 0.00 0.00 0.00 0.00 0.01 0.02 0.01 0.04 0.04 0.04 0.06 0.07 0.09 0.06 0.02 0.00 0.00 0.00 0.00 0.00 0.00 0.00 0.00 0.00 0.00 0.00 0.00 0.00 0.00 0.00 0.00 0.00 0.00 0.00 0.00 0.00 0.00 0.00
0.00 0.00 0.00 0.00 0.00 0.00 0.00 0.00 0.00 0.00 0.00 0.00 0.00 0.00 0.00 0.00 0.01 0.03 0.04 0.01 0.00 0.00 0.00 0.00 0.00 0.00 0.00 0.00 0.00 0.00 0.00 0.00 0.00 0.00 0.00 0.00 0.00 0.00 0.00 0.00 0.00 0.00 0.00
0.00 0.00 0.00 0.00 0.00 0.00 0.00 0.00 0.00 0.00 0.00 0.00 0.00 0.00 0.00 0.00 0.00 0.00 0.01 0.02 0.01 0.00 0.00 0.00 0.00 0.00 0.00 0.00 0.00 0.00 0.00 0.00 0.00 0.00 0.00 0.00 0.00 0.00 0.00 0.00 0.00 0.00 0.00
0.00 0.00 0.00 0.00 0.00 0.00 0.00 0.00 0.00 0.00 0.00 0.00 0.00 0.00 0.00 0.00 0.00 0.00 0.00 0.00 0.00 0.00 0.00 0.00 0.00 0.00 0.00 0.00 0.00 0.00 0.00 0.00 0.00 0.00 0.00 0.00 0.00 0.00 0.00 0.00 0.00 0.00 0.00
0.00 0.00 0.00 0.00 0.00 0.00 0.00 0.00 0.00 0.00 0.00 0.00 0.00 0.00 0.00 0.00 0.00 0.00 0.00 0.00 0.00 0.00 0.00 0.00 0.00 0.00 0.00 0.00 0.00 0.00 0.00 0.00 0.00 0.00 0.00 0.00 0.00 0.00 0.00 0.00 0.00 0.00 0.00
0.00 0.00 0.00 0.00 0.00 0.00 0.00 0.00 0.00 0.00 0.00 0.00 0.00 0.00 0.00 0.00 0.00 0.00 0.00 0.00 0.00 0.00 0.00 0.00 0.00 0.00 0.00 0.00 0.00 0.00 0.00 0.00 0.00 0.00 0.00 0.00 0.00 0.00 0.00 0.00 0.00 0.00 0.00
0.00 0.00 0.00 0.00 0.00 0.00 0.00 0.00 0.00 0.00 0.00 0.00 0.00 0.00 0.00 0.00 0.00 0.00 0.00 0.00 0.00 0.00 0.00 0.00 0.00 0.00 0.00 0.00 0.00 0.00 0.00 0.00 0.00 0.00 0.00 0.00 0.00 0.00 0.00 0.00 0.00 0.00 0.00
0.00 0.00 0.00 0.00 0.00 0.00 0.00 0.00 0.00 0.00 0.00 0.00 0.00 0.00 0.00 0.00 0.00 0.00 0.00 0.00 0.00 0.00 0.00 0.00 0.00 0.00 0.00 0.00 0.00 0.00 0.00 0.00 0.00 0.00 0.00 0.00 0.00 0.00 0.00 0.00 0.00 0.00 0.00
0.00 0.00 0.00 0.00 0.00 0.00 0.00 0.00 0.00 0.00 0.00 0.00 0.00 0.00 0.00 0.00 0.00 0.00 0.00 0.00 0.00 0.00 0.00 0.00 0.00 0.00 0.00 0.00 0.00 0.00 0.00 0.00 0.00 0.00 0.00 0.00 0.00 0.00 0.00 0.00 0.00 0.00 0.00
0.00 0.00 0.00 0.00 0.00 0.00 0.00 0.00 0.00 0.00 0.00 0.00 0.00 0.00 0.00 0.00 0.00 0.00 0.00 0.00 0.00 0.00 0.00 0.00 0.00 0.00 0.00 0.00 0.00 0.00 0.00 0.00 0.00 0.00 0.00 0.00 0.00 0.00 0.00 0.00 0.00 0.00 0.00
0.00 0.00 0.00 0.00 0.00 0.00 0.00 0.00 0.00 0.00 0.00 0.00 0.00 0.00 0.00 0.00 0.00 0.00 0.00 0.00 0.00 0.00 0.00 0.00 0.00 0.00 0.00 0.00 0.00 0.00 0.00 0.00 0.00 0.00 0.00 0.00 0.00 0.00 0.00 0.00 0.00 0.00 0.00
0.00 0.00 0.00 0.00 0.00 0.00 0.00 0.00 0.00 0.00 0.00 0.00 0.00 0.00 0.00 0.00 0.00 0.00 0.00 0.00 0.00 0.00 0.00 0.00 0.00 0.00 0.00 0.00 0.00 0.00 0.00 0.00 0.00 0.00 0.00 0.00 0.00 0.00 0.00 0.00 0.00 0.00 0.00
0.00 0.00 0.00 0.00 0.00 0.00 0.00 0.00 0.00 0.00 0.00 0.00 0.00 0.00 0.00 0.00 0.00 0.00 0.00 0.00 0.00 0.00 0.00 0.00 0.00 0.00 0.00 0.00 0.00 0.00 0.00 0.00 0.00 0.00 0.00 0.00 0.00 0.00 0.00 0.00 0.00 0.00 0.00
MSLP
1009.11 1008.84 1008.34 1008.24 1008.18 1007.90 1007.43 1007.01 1006.33 1005.52 1004.78 1004.34 1004.42 1005.01 1005.30 1005.47 1005.80 1006.13 1006.75 1007.60 1007.63 1008.31 1009.37 1009.85 1010.50 1010.73 1011.25 1011.78 1012.60 1013.29 1013.79 1014.20 1014.53 1015.09 1015.68 1016.23 1016.43 1016.59 1016.78 1016.97 1017.13 1017.78 1018.16
1008.87 1008.43 1008.19 1007.93 1007.82 1007.81 1007.64 1007.03 1006.38 1005.59 1005.01 1003.56 1003.10 1003.25 1004.09 1004.64 1005.01 1005.75 1006.38 1006.66 1006.82 1007.89 1008.74 1009.33 1010.01 1010.43 1010.99 1011.45 1012.12 1012.63 1013.22 1013.77 1013.99 1014.47 1015.16 1016.07 1016.62 1016.55 1016.61 1016.90 1017.22 1017.57 1017.93
1009.11 1008.82 1008.61 1008.55 1008.29 1007.97 1007.63 1007.13 1006.28 1005.38 1004.78 1004.19 1002.75 1003.01 1003.57 1004.25 1004.71 1004.90 1005.16 1005.56 1006.03 1007.41 1008.19 1009.09 1009.57 1009.93 1010.36 1010.82 1011.47 1012.10 1012.53 1012.94 1013.52 1013.78 1014.14 1015.15 1015.41 1016.11 1016.48 1016.53 1016.82 1017.15 1017.76
1009.30 1009.38 1009.32 1008.96 1008.53 1008.11 1007.77 1006.96 1006.26 1005.09 1004.15 1003.68 1002.29 1001.92 1002.14 1002.70 1002.94 1003.25 1004.12 1004.80 1005.97 1006.83 1008.10 1009.22 1009.59 1009.78 1009.95 1010.34 1010.79 1011.51 1011.97 1012.43 1012.75 1013.34 1013.40 1013.81 1014.12 1014.98 1016.06 1016.45 1016.52 1016.89 1017.10
1009.67 1009.66 1009.60 1009.47 1009.05 1008.32 1007.56 1006.75 1006.04 1004.84 1003.67 1002.69 1001.63 1000.97 1001.30 1001.49 1002.37 1002.72 1003.04 1004.25 1005.16 1005.84 1005.41 1005.69 1009.26 1009.34 1009.28 1009.75 1010.10 1010.88 1011.40 1011.88 1012.20 1012.40 1013.04 1013.74 1013.93 1013.89 1014.41 1015.21 1016.23 1016.67 1016.72
1010.22 1010.08 1009.90 1009.71 1009.29 1008.30 1007.80 1006.95 1005.83 1004.48 1002.97 1001.64 1000.49 1000.18 1000.40 1000.94 1001.54 1001.97 1002.53 1003.45 1004.27 1004.95 1005.06 1006.21 1007.41 1008.53 1008.90 1009.05 1009.44 1010.09 1010.84 1011.26 1011.66 1011.87 1012.20 1012.64 1012.97 1013.11 1013.35 1014.06 1015.31 1015.78 1016.26
1011.15 1010.82 1010.28 1010.21 1009.88 1009.10 1008.12 1007.08 1005.84 1004.08 1002.65 1001.22 999.57 999.77 1000.04 1000.60 1000.77 1001.10 1001.63 1002.52 1003.46 1004.27 1004.10 1005.00 1006.62 1007.51 1008.19 1008.41 1008.91 1009.63 1010.13 1010.66 1011.04 1011.27 1011.54 1012.04 1012.20 1012.28 1012.66 1013.15 1014.11 1014.97 1015.88
1011.73 1011.37 1011.18 1011.50 1010.85 1009.46 1008.35 1007.27 1005.87 1004.08 1002.43 1000.72 999.21 999.46 999.92 1000.23 1000.62 1000.91 1001.48 1001.83 1002.45 1002.95 1003.65 1004.54 1005.67 1006.47 1007.10 1007.88 1008.61 1009.03 1009.59 1009.94 1010.36 1010.59 1011.00 1011.52 1011.81 1012.18 1012.28 1012.60 1013.34 1014.50 1014.95
1012.46 1012.08 1011.92 1011.83 1011.05 1009.86 1008.86 1007.74 1006.14 1004.18 1002.27 1000.50 999.09 999.29 999.60 1000.09 1000.45 1000.78 1001.25 1001.76 1002.14 1002.90 1003.86 1004.57 1005.02 1006.05 1006.64 1007.53 1007.92 1008.64 1009.01 1009.40 1009.59 1009.90 1010.49 1010.90 1011.24 1011.65 1011.79 1012.07 1012.41 1012.89 1013.96
1012.79 1012.49 1012.22 1012.09 1011.20 1010.45 1009.19 1007.86 1006.50 1004.66 1002.75 1000.95 999.50 999.49 999.62 1000.00 1000.50 1000.90 1001.37 1001.81 1002.61 1003.56 1004.47 1004.62 1005.03 1005.89 1006.44 1006.80 1007.56 1008.10 1008.52 1008.81 1009.07 1009.44 1009.91 1010.28 1010.56 1010.84 1011.23 1011.58 1011.87 1012.24 1012.71
1013.54 1013.06 1012.37 1012.32 1011.71 1010.84 1009.75 1008.51 1006.87 1005.09 1003.20 1001.82 1000.10 999.84 999.96 1000.05 1000.35 1000.55 1000.91 1001.53 1002.11 1001.80 1004.45 1005.17 1005.04 1005.59 1006.14 1006.65 1007.22 1007.61 1007.90 1008.15 1008.51 1008.91 1009.27 1009.56 1009.90 1010.15 1010.52 1010.96 1011.39 1012.09 1012.33
1013.92 1013.80 1012.49 1012.53 1012.05 1011.37 1010.03 1008.74 1007.35 1005.95 1004.77 1003.13 1001.33 1000.22 1000.13 1000.42 1000.55 1000.66 1001.17 1001.49 1001.24 1002.12 1004.75 1005.13 1005.31 1005.90 1006.04 1006.34 1006.79 1007.18 1007.44 1007.72 1008.06 1008.36 1008.70 1008.76 1009.10 1009.01 1009.69 1010.12 1010.60 1011.24 1011.79
1014.26 1014.22 1012.83 1013.29 1013.00 1012.40 1011.22 1009.90 1008.60 1007.27 1005.52 1004.06 1003.06 1002.14 1001.76 1000.95 1001.38 1001.37 1001.34 1001.29 1001.51 1001.81 1004.50 1004.93 1005.27 1005.57 1005.73 1006.12 1006.62 1006.97 1007.25 1007.54 1007.67 1007.84 1008.08 1008.20 1008.23 1008.39 1008.89 1009.27 1009.92 1010.60 1011.47
1014.96 1014.47 1013.71 1014.24 1013.87 1013.22 1012.06 1010.83 1009.70 1008.34 1006.97 1005.61 1004.72 1003.92 1003.49 1002.94 1002.36 1001.61 1001.38 1001.23 1001.29 1001.78 1004.18 1004.74 1005.05 1005.53 1005.93 1006.21 1006.57 1006.89 1007.07 1007.26 1007.26 1007.52 1007.36 1007.29 1007.28 1007.64 1007.97 1008.63 1009.09 1009.95 1010.93
1015.57 1014.95 1014.85 1015.08 1014.62 1013.75 1012.63 1011.47 1010.43 1009.36 1008.32 1006.86 1006.37 1005.59 1005.20 1004.63 1003.84 1002.71 1002.32 1002.09 1001.69 1002.73 1004.34 1005.17 1005.96 1006.42 1006.82 1007.16 1007.17 1007.10 1006.87 1006.95 1007.36 1007.80 1007.68 1007.79 1006.94 1007.03 1007.33 1008.07 1008.67 1009.38 1010.47
1016.16 1015.64 1015.89 1015.78 1015.41 1014.60 1013.60 1012.67 1011.80 1010.80 1009.81 1008.78 1007.60 1007.22 1006.32 1005.74 1005.22 1004.58 1003.40 1003.71 1003.50 1004.47 1005.21 1006.00 1006.55 1007.09 1007.71 1008.05 1007.60 1007.03 1007.19 1007.60 1007.97 1008.22 1008.44 1008.37 1008.29 1008.01 1008.06 1008.39 1008.85 1009.22 1010.04
1016.83 1016.65 1016.60 1016.56 1016.06 1015.47 1014.79 1013.83 1012.98 1012.04 1011.15 1010.20 1009.24 1008.71 1007.98 1007.36 1006.89 1006.21 1005.67 1005.49 1005.95 1005.59 1006.65 1007.23 1007.74 1008.03 1008.31 1008.64 1008.20 1007.73 1008.09 1008.52 1008.96 1009.22 1009.27 1009.26 1009.40 1009.53 1009.48 1009.97 1010.09 1010.68 1011.26
1017.51 1017.49 1017.23 1017.09 1016.70 1016.26 1015.51 1014.80 1014.04 1013.38 1012.62 1011.83 1011.09 1010.26 1009.57 1008.84 1008.41 1007.78 1007.84 1008.14 1008.07 1007.96 1007.84 1008.22 1008.85 1008.84 1009.21 1009.09 1009.57 1008.96 1009.18 1009.54 1010.05 1010.19 1010.23 1010.33 1010.42 1010.52 1010.72 1010.21 1011.05 1012.29 1012.46
1018.49 1018.46 1018.06 1017.98 1017.49 1017.01 1016.42 1015.63 1014.99 1014.59 1013.90 1013.20 1012.66 1011.98 1011.35 1010.61 1009.92 1009.15 1009.49 1008.72 1010.09 1009.62 1009.05 1009.46 1009.83 1009.78 1010.28 1010.18 1010.66 1010.36 1010.17 1010.62 1011.04 1011.23 1011.14 1011.34 1011.41 1011.65 1011.60 1011.70 1012.22 1013.41 1014.54
1019.37 1018.97 1018.62 1018.63 1018.15 1017.78 1017.32 1016.73 1016.29 1015.84 1015.22 1014.79 1014.27 1013.47 1012.71 1011.94 1011.62 1011.27 1011.03 1010.85 1010.64 1010.75 1010.94 1011.03 1011.06 1011.11 1011.26 1011.41 1011.74 1011.47 1011.31 1011.51 1011.94 1012.39 1012.68 1012.59 1012.58 1012.59 1012.61 1012.95 1013.70 1014.60 1016.00
1019.95 1019.59 1019.43 1019.24 1019.03 1018.69 1018.15 1017.68 1017.47 1016.98 1016.78 1016.22 1015.57 1014.79 1014.14 1013.61 1013.14 1012.63 1012.23 1012.05 1012.06 1011.78 1012.37 1012.56 1012.34 1012.36 1012.78 1013.05 1013.02 1012.61 1012.23 1012.69 1013.00 1013.70 1014.02 1014.16 1014.09 1013.86 1014.26 1014.45 1015.17 1016.07 1016.86
1020.52 1020.42 1020.18 1020.09 1019.89 1019.50 1019.04 1018.65 1018.26 1018.40 1017.99 1017.45 1016.66 1016.06 1015.59 1015.21 1014.70 1014.24 1014.03 1013.75 1013.63 1013.48 1013.15 1013.42 1013.72 1013.99 1014.94 1014.38 1014.55 1014.04 1013.83 1014.07 1014.26 1014.80 1015.49 1015.78 1015.44 1015.51 1015.70 1016.26 1016.79 1017.47 1017.93
1021.77 1021.44 1021.01 1020.78 1020.67 1020.33 1019.95 1019.36 1019.30 1018.88 1018.52 1018.19 1017.84 1017.34 1016.91 1016.49 1016.11 1015.80 1015.58 1015.33 1015.25 1015.26 1015.22 1014.80 1015.11 1016.15 1016.29 1016.28 1016.14 1015.62 1015.52 1015.68 1016.05 1016.61 1016.79 1016.90 1016.91 1017.23 1017.47 1017.61 1018.32 1018.47 1019.33
1022.78 1022.44 1021.96 1021.72 1021.50 1021.16 1020.79 1020.41 1019.85 1019.56 1019.12 1018.80 1018.60 1018.51 1018.16 1018.06 1017.59 1017.30 1017.05 1017.07 1016.82 1016.56 1016.54 1016.72 1017.00 1017.14 1017.10 1017.11 1017.14 1017.00 1017.02 1017.38 1017.26 1017.90 1018.00 1018.22 1018.46 1018.56 1018.96 1019.54 1019.75 1020.01 1020.42
1024.12 1023.75 1023.30 1023.05 1022.71 1022.19 1021.72 1021.26 1020.83 1020.21 1019.84 1019.80 1019.60 1019.28 1019.24 1019.09 1019.18 1019.16 1018.84 1018.46 1018.34 1018.02 1017.95 1018.02 1017.93 1018.09 1018.10 1018.40 1018.10 1017.93 1018.09 1018.43 1018.83 1018.65 1018.96 1019.16 1019.53 1020.12 1020.15 1020.72 1021.34 1021.53 1021.62
1025.23 1024.98 1024.91 1024.57 1024.06 1023.42 1022.85 1022.36 1021.80 1021.14 1020.68 1020.43 1020.38 1020.44 1020.25 1020.07 1020.02 1020.07 1020.03 1020.05 1019.78 1019.64 1019.38 1019.40 1019.30 1019.12 1019.25 1019.39 1019.25 1018.94 1019.16 1019.39 1019.68 1019.55 1019.84 1020.26 1020.74 1021.16 1021.53 1021.41 1022.16 1022.71 1023.01
Thickness
5612 5616 5621 5622 5623 5622 5622 5623 5628 5635 5643 5650 5649 5645 5648 5654 5659 5662 5659 5652 5656 5654 5648 5648 5645 5646 5645 5642 5636 5631 5628 5624 5623 5616 5612 5610 5611 5610 5608 5612 5614 5614 5614
5605 5609 5610 5611 5609 5606 5605 5606 5609 5616 5623 5639 5648 5651 5648 5647 5651 5648 5647 5650 5653 5646 5642 5643 5641 5640 5639 5637 5632 5629 5624 5621 5620 5615 5609 5604 5604 5605 5607 5608 5610 5611 5612
5594 5596 5595 5592 5591 5590 5588 5589 5594 5602 5609 5618 5634 5636 5636 5635 5636 5640 5648 5651 5650 5640 5637 5635 5634 5636 5637 5634 5629 5625 5623 5619 5616 5616 5611 5603 5608 5604 5603 5606 5607 5608 5607
5583 5580 5577 5576 5574 5572 5570 5577 5583 5593 5601 5609 5625 5632 5634 5636 5643 5646 5645 5642 5636 5632 5626 5615 5623 5626 5631 5629 5626 5622 5619 5617 5614 5611 5613 5612 5615 5607 5601 5601 5604 5604 5606
5570 5567 5562 5557 5555 5556 5559 5564 5569 5581 5593 5606 5620 5631 5632 5639 5636 5638 5641 5635 5631 5630 5639 5636 5612 5616 5625 5625 5625 5619 5616 5613 5612 5612 5608 5605 5607 5611 5609 5605 5599 5598 5601
5554 5552 5547 5539 5539 5545 5544 5549 5558 5571 5588 5605 5621 5629 5632 5633 5631 5633 5635 5633 5630 5630 5633 5627 5623 5617 5619 5622 5622 5618 5613 5611 5610 5610 5609 5608 5607 5609 5611 5607 5599 5598 5597
5533 5532 5531 5525 5523 5527 5533 5540 5551 5567 5582 5598 5622 5625 5628 5628 5630 5632 5635 5633 5629 5629 5635 5629 5621 5620 5617 5621 5619 5614 5611 5609 5608 5608 5608 5606 5608 5611 5610 5607 5602 5597 5591
5519 5517 5512 5504 5506 5516 5524 5531 5543 5560 5578 5597 5620 5622 5622 5623 5625 5628 5628 5631 5630 5634 5635 5629 5626 5621 5622 5618 5614 5612 5608 5609 5607 5608 5606 5603 5603 5601 5604 5602 5599 5590 5591
5502 5502 5500 5495 5499 5506 5514 5521 5535 5555 5576 5594 5615 5618 5618 5617 5620 5622 5621 5624 5628 5629 5627 5621 5623 5620 5617 5614 5614 5609 5608 5606 5607 5607 5603 5600 5599 5597 5598 5598 5600 5597 5589
5493 5493 5492 5488 5493 5495 5505 5516 5529 5547 5566 5586 5607 5609 5612 5613 5612 5613 5613 5615 5614 5610 5610 5611 5616 5613 5613 5614 5610 5607 5606 5605 5605 5603 5600 5598 5597 5596 5593 5594 5595 5596 5594
5481 5483 5486 5481 5484 5490 5497 5507 5522 5539 5557 5572 5596 5601 5604 5605 5607 5612 5613 5614 5613 5621 5597 5599 5610 5610 5609 5607 5605 5605 5604 5604 5602 5599 5597 5595 5592 5591 5590 5589 5590 5588 5589
5471 5472 5480 5475 5477 5480 5490 5502 5515 5528 5538 5554 5577 5595 5599 5596 5600 5604 5605 5609 5615 5612 5591 5595 5598 5597 5602 5603 5602 5601 5600 5599 5597 5595 5592 5591 5588 5591 5589 5588 5588 5588 5587
5460 5463 5472 5464 5464 5467 5477 5487 5500 5512 5528 5544 5556 5567 5575 5591 5589 5593 5596 5602 5608 5611 5591 5591 5592 5595 5598 5599 5597 5596 5595 5593 5592 5590 5588 5586 5585 5587 5586 5587 5585 5585 5581
5447 5454 5459 5451 5453 5457 5466 5477 5486 5500 5513 5528 5538 5545 5553 5561 5572 5586 5590 5597 5601 5602 5588 5587 5590 5589 5591 5592 5591 5589 5589 5588 5589 5586 5587 5587 5586 5587 5586 5585 5586 5583 5579
5435 5442 5442 5439 5443 5449 5457 5467 5476 5487 5496 5510 5519 5528 5535 5541 5550 5566 5569 5581 5589 5587 5579 5576 5574 5573 5575 5575 5576 5580 5584 5586 5580 5575 5574 5572 5583 5585 5587 5584 5584 5581 5576
5424 5429 5428 5429 5431 5439 5446 5454 5462 5472 5480 5490 5503 5510 5520 5527 5532 5538 5552 5555 5566 5562 5563 5562 5562 5560 5559 5557 5564 5573 5574 5572 5569 5567 5564 5561 5564 5569 5571 5572 5572 5575 5573
5413 5415 5417 5417 5422 5427 5433 5441 5448 5457 5465 5474 5482 5492 5502 5509 5513 5519 5528 5533 5528 5544 5541 5544 5545 5547 5549 5546 5552 5559 5558 5557 5555 5555 5553 5552 5551 5551 5555 5554 5555 5552 5551
5401 5402 5406 5409 5413 5417 5424 5431 5436 5442 5449 5457 5465 5475 5484 5491 5495 5501 5505 5507 5510 5517 5523 5528 5528 5533 5533 5537 5534 5542 5542 5542 5540 5542 5542 5540 5540 5539 5539 5546 5541 5534 5535
5387 5388 5395 5398 5404 5408 5414 5421 5426 5429 5436 5442 5447 5456 5463 5471 5478 5487 5488 5498 5490 5496 5507 5510 5511 5518 5518 5521 5519 5525 5528 5527 5526 5526 5529 5529 5528 5527 5529 5529 5528 5520 5513
5375 5382 5388 5390 5395 5399 5404 5409 5412 5416 5421 5426 5432 5439 5447 5456 5461 5466 5471 5476 5481 5479 5482 5486 5493 5499 5502 5503 5502 5508 5512 5513 5512 5510 5510 5513 5515 5515 5515 5513 5510 5504 5495
5371 5377 5380 5382 5385 5389 5394 5398 5400 5403 5406 5411 5418 5425 5432 5439 5444 5451 5458 5463 5463 5468 5466 5467 5475 5479 5480 5480 5483 5489 5496 5494 5495 5491 5490 5491 5493 5497 5496 5495 5491 5485 5481
5367 5369 5372 5373 5376 5380 5384 5387 5390 5389 5393 5398 5405 5410 5415 5420 5426 5433 5437 5440 5444 5448 5453 5452 5454 5458 5451 5459 5461 5467 5472 5472 5473 5471 5467 5467 5473 5474 5474 5471 5468 5465 5463
5355 5359 5364 5366 5367 5370 5374 5379 5379 5383 5386 5388 5392 5397 5401 5405 5410 5414 5418 5422 5422 5424 5427 5433 5434 5429 5430 5433 5436 5443 5446 5447 5445 5443 5444 5444 5447 5447 5447 5448 5443 5444 5439
5345 5349 5354 5356 5358 5361 5363 5367 5372 5374 5377 5380 5381 5382 5387 5387 5392 5395 5398 5399 5404 5406 5407 5408 5408 5408 5411 5413 5416 5420 5422 5420 5423 5419 5420 5421 5421 5422 5421 5417 5418 5417 5414
5331 5335 5340 5342 5345 5350 5353 5355 5358 5364 5367 5367 5369 5371 5371 5372 5372 5372 5376 5379 5380 5383 5386 5386 5389 5389 5390 5389 5394 5399 5399 5398 5396 5400 5399 5398 5397 5394 5395 5392 5387 5388 5389
5320 5322 5322 5324 5329 5336 5339 5342 5346 5351 5354 5356 5356 5355 5357 5358 5358 5359 5359 5358 5360 5360 5363 5363 5365 5367 5367 5367 5370 5375 5375 5374 5374 5377 5375 5373 5370 5368 5367 5370 5365 5361 5359